Flag for Canada Weather past 2 weeks in Taloyoak, Nunavut, Canada

Now
19 °F

Scattered clouds.


Feels Like: 14 °F
Forecast: 7 / 23 °F
Wind: 3 mph from North

Location: Spence Bay Airport

Current Time: May 23, 2015 at 1:37:45 AM

Latest Report: May 23, 2015 at 1:00 AM


Visibility: 15 mi

Pressure: 29.96 "Hg

Humidity: 86%

Dew point: 16 °F

Location of TaloyoakLocation

Historic Weather in Taloyoak — Graph

°F

Taloyoak temperature yesterday

Maximum temperature yesterday: 25 °F (at 1:00 PM)
Minimum temperature yesterday: 16 °F (at 2:00 AM)
Average temperature yesterday: 21 °F

Past Weeks' High & Low Weather Summary

 TemperatureHumidityPressure
High36 °F (May 21, 6:00 PM)100% (May 12, 12:00 PM)30.44 "Hg (May 12, 12:00 PM)
Low-8 °F (May 8, 3:00 AM)59% (May 20, 3:00 PM)29.53 "Hg (May 12, 11:47 PM)
Average15 °F80%30.05 "Hg
* Reported May 7 11:00 PM — May 22 11:00 PM, Taloyoak, Weather by CustomWeather, © 2015

Note: Actual official high and low records may vary slightly from our data, if they occured in-between our weather recording intervals... More about our weather records

Advertising

Taloyoak weather history for previous 24 hours

 ConditionsComfort  
Time TempWeatherWind HumidityBarometerVisibility
11:00 PM
Fri, May 22
21 °FPartly sunny.6 mph80%29.98 "Hg15 mi
10:00 PM21 °FPartly sunny.14 mph80%29.99 "Hg15 mi
9:00 PM19 °FScattered clouds.9 mph79%30.00 "Hg15 mi
8:00 PM21 °FScattered clouds.22 mph80%29.99 "Hg15 mi
7:00 PM23 °FPassing clouds.18 mph74%30.00 "Hg15 mi
6:00 PM23 °FPassing clouds.29 mph74%29.98 "Hg15 mi
5:00 PM25 °FPassing clouds.30 mph69%29.97 "Hg15 mi
4:00 PM25 °FPassing clouds.26 mph69%29.98 "Hg15 mi
3:00 PM25 °FPassing clouds.28 mph69%29.97 "Hg15 mi
2:00 PM25 °FPassing clouds.32 mph63%29.95 "Hg15 mi
1:00 PM25 °FPassing clouds.18 mph69%29.97 "Hg15 mi
12:00 PM23 °FPassing clouds.23 mph68%29.96 "Hg15 mi
11:00 AM23 °FPassing clouds.31 mph68%29.93 "Hg15 mi
10:00 AM21 °FPassing clouds.25 mph74%29.94 "Hg15 mi
9:00 AM21 °FScattered clouds.31 mph68%29.92 "Hg15 mi
8:00 AM21 °FScattered clouds.23 mph63%29.94 "Hg15 mi
7:00 AM19 °FPassing clouds.22 mph63%29.94 "Hg15 mi
6:00 AM18 °FPassing clouds.13 mph68%29.93 "Hg15 mi
5:00 AM18 °FPassing clouds.21 mph68%29.92 "Hg15 mi
4:00 AM16 °FPassing clouds.18 mph73%29.92 "Hg15 mi
3:00 AM16 °FPassing clouds.13 mph73%29.91 "Hg15 mi
2:00 AM16 °FPassing clouds.16 mph79%29.90 "Hg15 mi
1:00 AM18 °FPassing clouds.8 mph86%29.90 "Hg15 mi
Weather by CustomWeather, © 2015

See weather overviewHow to use our weather pages